Home > Weather > Glasgow > Past weeks

Flag for United Kingdom Weather for the Past 2 Weeks in Glasgow, Scotland, United Kingdom

Now
32 °F

Chilly.


Feels Like: 29 °F
Forecast: 31 / 40 °F
Wind: 3 mph from Northeast

Location: Glasgow Airport

Current Time: Feb 12, 2016 at 12:44:37 AM

Latest Report: Feb 11, 2016 at 11:50 PM


Visibility: N/A

Pressure: 29.50 "Hg

Humidity: 93%

Dew point: 30 °F

Location of GlasgowLocation

Historic Weather in Glasgow — Graph

°F

Glasgow Temperature Yesterday

Maximum temperature yesterday: 45 °F (at 1:50 PM)
Minimum temperature yesterday: 28 °F (at 6:50 AM)
Average temperature yesterday: 37 °F

High & Low Weather Summary for the Past Weeks

 TemperatureHumidityPressure
High52 °F (Feb 1, 2:20 AM)100% (Jan 31, 11:50 PM)30.15 "Hg (Jan 31, 11:50 PM)
Low28 °F (Feb 11, 6:50 AM)53% (Feb 2, 2:20 PM)28.50 "Hg (Feb 8, 4:20 AM)
Average42 °F83%29.41 "Hg
* Reported Jan 27 11:20 PM — Feb 11 11:20 PM, Glasgow, Weather by CustomWeather, © 2016

Note: Actual official high and low records may vary slightly from our data, if they occured in-between our weather recording intervals... More about our weather records

Advertising

Glasgow Weather History for the Previous 24 Hours

 ConditionsComfort  
Time TempWeatherWind HumidityBarometerVisibility
11:20 PM
Thu, Feb 11
32 °FPassing clouds.1 mph93%29.50 "HgN/A
10:50 PM34 °FChilly.2 mph93%29.50 "HgN/A
9:50 PM36 °FPassing clouds.6 mph93%29.53 "HgN/A
9:20 PM37 °FPassing clouds.7 mph87%29.53 "HgN/A
8:50 PM37 °FLight rain. Partly cloudy.5 mph87%29.53 "HgN/A
8:20 PM37 °FPassing clouds.6 mph87%29.53 "HgN/A
7:50 PM39 °FOvercast.5 mph81%29.53 "HgN/A
7:20 PM36 °FPassing clouds.5 mph87%29.53 "HgN/A
6:50 PM37 °FPassing clouds.3 mph87%29.53 "HgN/A
6:20 PM37 °FPartly cloudy.2 mph87%29.56 "HgN/A
5:50 PM37 °FPassing clouds.2 mph87%29.56 "HgN/A
5:20 PM39 °FPassing clouds.6 mph81%29.56 "HgN/A
4:50 PM41 °FMostly cloudy.8 mph81%29.53 "HgN/A
4:20 PM43 °FPartly sunny.9 mph71%29.53 "HgN/A
3:50 PM43 °FPassing clouds.3 mph71%29.53 "HgN/A
3:20 PM41 °FPassing clouds.3 mph76%29.53 "HgN/A
2:50 PM43 °FScattered clouds.6 mph71%29.56 "HgN/A
2:20 PM45 °FScattered clouds.3 mph66%29.56 "HgN/A
1:50 PM45 °FPassing clouds.3 mph66%29.56 "HgN/A
1:20 PM43 °FQuite cool.6 mph71%29.56 "HgN/A
12:50 PM43 °FQuite cool.6 mph71%29.56 "HgN/A
12:20 PM43 °FPassing clouds.7 mph71%29.56 "HgN/A
11:50 AM43 °FPassing clouds.7 mph71%29.56 "HgN/A
11:20 AM41 °FQuite cool.1 mph81%29.56 "HgN/A
10:50 AM41 °FQuite cool.2 mph81%29.56 "HgN/A
10:20 AM37 °FChilly.2 mph87%29.56 "HgN/A
9:50 AM37 °FChilly.3 mph81%29.56 "HgN/A
9:20 AM34 °FChilly.2 mph87%29.56 "HgN/A
8:50 AM34 °FChilly.3 mph87%29.56 "HgN/A
8:20 AM32 °FChilly.3 mph87%29.56 "HgN/A
7:50 AM32 °FChilly.2 mph93%29.56 "HgN/A
7:20 AM30 °FChilly.3 mph93%29.56 "HgN/A
6:50 AM28 °FChilly.2 mph93%29.56 "HgN/A
6:20 AM32 °FChilly.3 mph87%29.53 "HgN/A
5:50 AM32 °FChilly.3 mph87%29.53 "HgN/A
5:20 AM32 °FPassing clouds.3 mph87%29.56 "HgN/A
4:50 AM34 °FPassing clouds.6 mph87%29.56 "HgN/A
4:20 AM34 °FChilly.1 mph87%29.56 "HgN/A
3:50 AM34 °FPassing clouds.2 mph87%29.56 "HgN/A
3:20 AM32 °FPassing clouds.2 mph87%29.56 "HgN/A
2:50 AM34 °FPassing clouds.2 mph87%29.56 "HgN/A
2:20 AM32 °FChilly.3 mph87%29.53 "HgN/A
1:20 AM36 °FPassing clouds.3 mph87%29.53 "HgN/A
12:50 AM36 °FPassing clouds.7 mph87%29.53 "HgN/A
12:20 AM36 °FChilly.7 mph87%29.53 "HgN/A
Weather by CustomWeather, © 2016

See weather overviewHow to use our weather pages